SCP
0 0 0 0 0 0 0 0 0 0 0 0 0 0 1 1 1 1 1 1 1 1 1 1 0 0 0 0 0 0 0 0 0 0 0 0 0 0 0 0 0 0 0 0
0 0 0 0 0 0 0 0 0 0 0 0 0 1 1 1 1 1 1 1 1 1 1 1 0 0 0 0 0 0 0 0 0 0 0 0 0 0 0 0 0 0 0 0
0 0 0 0 0 0 0 0 0 0 0 0 1 1 1 1 1 1 1 1 1 1 1 1 1 0 0 0 0 0 0 0 0 0 0 0 0 0 0 0 0 0 0 0
0 0 0 0 0 0 0 0 0 0 0 1 1 1 1 1 1 1 1 1 1 1 1 1 1 0 0 0 0 0 0 0 0 0 0 0 0 0 0 0 0 0 0 0
0 0 0 0 0 0 0 0 0 0 1 1 1 1 1 1 1 1 1 1 1 1 1 1 1 0 0 0 0 0 0 0 0 0 0 0 0 0 0 0 0 0 0 0
0 0 0 0 0 0 0 0 0 1 1 1 1 1 1 1 1 1 1 1 1 1 1 1 0 0 0 0 0 0 0 0 0 0 0 0 0 0 0 0 0 0 0 0
0 0 0 0 0 0 0 0 0 1 1 1 1 1 1 1 1 1 1 1 1 1 1 1 0 0 0 0 0 0 0 0 0 0 0 0 0 0 0 0 0 0 0 0
0 0 0 0 0 0 0 0 0 1 1 1 1 1 1 1 1 1 1 1 1 1 1 0 0 0 0 0 0 0 0 0 0 0 0 0 0 0 0 0 0 0 0 0
0 0 0 0 0 0 0 0 0 1 1 1 1 1 1 1 0 0 0 0 1 1 0 0 0 0 0 0 0 0 0 0 0 0 0 0 0 0 0 0 0 0 0 0
0 0 0 0 0 0 0 1 1 1 1 1 1 1 1 0 0 0 0 0 0 0 0 0 0 0 0 0 0 0 0 0 0 0 0 0 0 0 0 0 0 0 0 0
0 0 0 0 0 0 0 1 1 1 1 1 1 0 0 0 0 0 0 0 0 0 0 0 0 0 0 0 0 0 0 0 0 0 0 0 0 0 0 0 0 0 0 0
0 0 0 0 0 0 0 0 1 1 0 0 0 0 0 0 0 0 0 0 0 0 0 0 0 0 0 0 0 0 0 0 0 0 0 0 0 0 0 0 0 0 0 0
0 0 0 0 0 0 0 0 0 0 0 0 0 0 0 0 0 0 0 0 0 0 0 0 0 0 0 0 0 0 0 0 0 0 0 0 0 0 0 0 0 0 0 0
0 0 0 0 0 0 0 0 0 0 0 0 0 0 0 0 0 0 0 0 0 0 0 0 0 0 0 0 0 0 0 0 0 0 0 0 0 0 0 0 0 0 0 0
0 0 0 0 0 0 0 0 0 0 0 0 0 0 0 0 0 0 0 0 0 0 0 0 0 0 0 0 0 0 0 0 0 0 0 0 0 0 0 0 0 0 0 0
0 0 0 0 0 0 0 0 0 0 0 0 0 0 0 0 0 0 0 0 0 0 0 0 0 0 0 0 0 0 0 0 0 0 0 0 0 0 0 0 0 0 0 0
0 0 0 0 0 0 0 0 0 0 0 0 0 0 0 0 0 0 0 0 0 0 0 0 0 0 0 0 0 0 0 0 0 0 0 0 0 0 0 0 0 0 0 0
0 0 0 0 0 0 0 0 0 0 0 0 0 0 0 0 0 0 0 0 0 0 0 0 0 0 0 0 0 0 0 0 0 0 0 0 0 0 0 0 0 0 0 0
0 0 0 0 0 0 0 0 0 0 0 0 0 0 0 0 0 0 0 0 0 0 0 0 0 0 0 -0 -0 -0 0 0 0 0 0 0 0 0 0 0 0 0 0 0
0 0 0 0 0 0 0 0 0 0 0 0 0 0 0 0 0 0 0 0 0 0 0 0 0 0 0 -0 -0 -0 -0 -0 -0 -0 -0 -0 -0 -0 -0 0 0 0 0 0
0 0 0 0 0 0 0 0 0 0 0 0 0 0 0 0 0 0 0 0 0 0 0 0 0 0 -0 -0 -0 -0 -0 -0 -0 -0 -0 -0 -0 -0 0 0 0 0 0 0
0 0 0 0 0 0 0 0 0 0 0 0 0 0 0 0 0 0 0 0 0 0 0 0 0 0 -0 -0 -0 -0 -0 -0 -0 -0 -0 -0 -0 0 0 0 -0 -0 -0 -0
0 0 0 0 0 0 0 0 0 0 0 0 0 0 0 0 0 0 0 0 0 0 0 0 0 -0 -0 0 0 0 0 0 0 0 -0 -0 0 0 0 0 -0 -0 -0 0
0 0 0 0 0 0 0 0 0 0 0 0 -0 0 0 0 0 0 0 0 0 0 0 0 -0 -0 -0 0 0 0 0 0 0 0 0 -0 0 0 0 0 0 0 0 0
0 0 0 0 0 0 0 0 0 0 0 0 0 0 0 0 0 0 0 0 0 0 0 -0 -0 -0 -0 0 0 0 0 0 0 0 0 0 0 0 0 0 0 0 0 0
0 0 0 0 -0 -0 -0 -0 0 0 0 0 0 0 0 -0 -0 -0 -0 -0 0 0 -0 0 0 0 0 0 0 0 0 0 0 0 0 0 0 0 0 0 0 0 0 0
0 0 0 0 -0 -0 -0 0 0 0 0 0 0 0 -0 -0 -0 -0 -0 -0 -0 0 0 0 0 0 0 0 0 -0 -0 -0 -0 0 0 0 0 0 0 0 0 0 0 0
Wind_Speed
5 5 2 2 3 3 5 8 9 9 9 10 10 10 9 9 9 9 8 8 9 9 8 7 7 6 6 6 5 6 6 6 5 5 5 5 4 4 4 4 4 4 4 3
1 1 1 2 4 3 3 4 6 7 4 5 7 6 7 9 10 10 8 7 8 8 8 8 8 8 7 6 6 6 7 6 5 6 6 5 5 5 5 5 5 5 5 5
1 2 4 3 3 1 1 1 6 7 8 8 8 10 12 11 10 10 9 7 8 8 8 8 8 8 8 7 7 7 7 6 6 6 6 6 6 6 6 6 6 6 5 6
2 2 2 7 3 2 4 2 1 4 8 11 10 7 6 8 11 9 8 8 8 7 7 6 6 7 7 7 8 7 7 6 6 7 7 7 7 6 6 5 6 6 6 6
3 2 3 5 3 1 3 3 1 6 9 9 9 8 4 2 7 8 8 7 7 7 6 6 6 7 9 8 8 7 7 6 6 7 8 8 7 7 6 6 7 6 5 6
3 3 4 6 5 1 6 2 3 6 11 10 8 5 3 2 5 6 6 6 7 7 7 7 6 7 9 8 8 7 6 6 6 7 8 8 8 7 6 7 7 7 7 6
4 3 4 5 5 3 5 5 2 5 8 8 5 5 6 6 6 6 7 8 8 8 7 6 7 8 8 7 6 6 7 7 7 7 7 8 8 7 7 7 8 8 8 6
3 3 6 5 3 3 5 3 5 6 6 8 8 9 9 8 8 7 8 7 7 8 6 6 7 9 9 7 6 7 8 8 7 7 7 7 9 7 7 8 8 7 7 7
4 5 3 1 2 2 4 6 6 7 8 10 10 8 7 7 8 7 8 7 7 9 8 6 5 7 9 6 6 8 8 8 8 8 7 7 8 8 6 6 6 6 6 6
2 1 1 3 5 5 5 7 7 10 11 11 10 8 7 6 6 6 7 7 6 8 8 7 6 6 7 7 7 9 10 8 8 8 8 7 5 5 6 5 6 6 6 6
2 1 4 6 5 5 6 8 9 9 10 10 11 8 7 6 6 6 6 6 6 7 8 7 6 6 6 7 9 10 9 8 8 8 8 8 7 5 5 4 4 6 5 5
3 3 3 1 1 4 7 8 8 8 8 7 9 9 7 6 5 6 6 6 7 7 7 7 7 7 6 7 9 10 9 8 7 7 7 7 8 8 13 10 12 11 9 8
4 2 3 2 2 4 6 7 7 7 7 8 7 8 8 6 6 6 7 6 7 7 7 7 7 7 7 7 8 9 9 8 7 7 7 7 7 8 8 9 13 13 11 11
4 5 4 2 2 4 6 8 8 8 7 7 7 7 7 7 7 7 7 6 6 7 7 7 8 7 6 7 8 9 9 9 9 7 6 6 6 6 6 8 7 5 6 9
3 5 6 5 4 4 5 6 7 6 6 7 7 7 8 8 8 7 6 7 8 8 7 8 9 7 6 8 9 10 8 7 7 7 6 6 6 6 6 7 6 5 4 4
4 4 5 6 5 5 5 5 6 6 6 6 7 7 7 8 8 7 7 7 8 8 7 8 8 7 7 8 9 8 7 12 9 7 7 6 6 6 6 6 5 5 4 3
6 5 6 6 5 5 5 5 6 6 6 7 7 8 9 9 9 8 7 6 7 7 7 7 7 7 7 8 8 6 6 9 12 8 6 6 6 6 5 5 5 4 3 3
6 6 7 8 7 7 6 7 7 7 7 8 9 9 8 9 8 8 7 7 8 8 6 6 7 7 7 7 6 6 6 6 6 6 5 5 5 5 5 5 5 4 2 2
7 7 7 7 7 7 7 7 7 7 8 8 9 9 8 8 8 8 8 8 8 7 5 5 8 7 6 6 7 5 6 6 5 5 5 7 6 4 4 4 4 4 4 3
8 8 8 8 8 8 8 7 8 8 7 8 9 10 9 8 7 8 8 7 4 4 5 6 6 5 5 6 7 4 5 5 6 5 5 5 5 5 5 5 5 5 4 4
7 7 8 9 8 8 8 8 8 8 8 8 9 9 9 8 7 7 7 6 4 5 6 6 4 4 4 5 6 4 4 4 5 5 5 5 5 5 4 5 5 5 4 4
7 8 9 9 8 7 6 6 8 8 8 8 8 9 9 8 8 7 5 4 4 6 5 3 3 4 5 5 3 3 4 4 4 4 4 4 5 5 5 5 5 5 5 4
7 8 8 8 8 8 8 7 7 8 8 8 8 8 8 6 5 6 5 3 4 5 4 3 4 6 5 3 3 3 4 4 4 4 4 4 4 4 5 5 5 5 5 4
7 7 7 8 8 9 8 7 7 6 7 7 7 7 7 6 4 3 4 6 6 6 3 4 5 4 4 2 2 3 4 4 4 4 4 4 4 4 4 5 5 5 5 6
8 8 8 8 8 7 7 7 8 7 7 6 6 6 5 4 5 4 4 5 6 5 3 3 3 4 3 2 2 3 3 4 4 4 4 4 4 4 4 4 4 5 5 5
8 7 6 6 6 5 5 5 5 5 5 5 4 4 4 4 5 4 4 4 5 4 3 1 2 2 2 2 2 2 3 3 3 3 3 4 4 4 4 4 5 4 4 4
7 6 5 5 5 4 5 5 5 4 4 5 5 4 4 4 4 4 4 3 3 2 2 1 1 1 1 1 1 1 2 2 2 3 3 3 3 3 4 4 4 4 4 4
Wind_Direction
202 208 183 216 260 214 180 186 182 202 187 198 186 178 169 159 149 145 151 157 164 163 159 159 159 158 155 155 151 146 141 143 148 146 138 129 123 118 111 110 110 104 104 104
304 306 52 337 297 274 231 197 174 155 195 201 172 148 148 150 150 147 152 159 158 155 155 159 162 160 153 151 151 142 141 143 140 134 128 122 117 109 102 98 95 93 92 92
271 329 41 315 272 218 343 332 158 173 196 168 161 163 166 159 148 150 157 160 162 161 161 162 159 154 152 149 140 135 135 134 132 129 122 117 113 104 102 99 92 87 85 89
125 60 220 245 258 112 96 27 123 152 157 163 162 150 143 146 142 152 158 160 155 155 152 149 142 140 136 131 130 132 131 132 133 129 122 117 113 109 104 99 97 93 88 91
114 157 265 296 321 115 113 354 2 137 141 134 123 87 56 105 138 149 157 150 140 142 141 135 136 138 131 128 128 127 127 131 132 129 126 122 118 115 111 105 99 94 92 93
123 144 219 250 282 292 97 18 324 136 141 139 121 121 191 149 130 131 128 124 120 120 119 126 132 129 125 129 128 131 134 131 128 126 124 122 119 114 108 105 102 97 86 80
152 179 250 265 296 55 111 215 246 128 136 134 131 149 145 121 110 112 110 109 114 116 121 131 132 124 120 121 126 128 122 117 116 118 120 119 113 111 110 107 102 97 90 77
136 167 246 307 23 121 190 167 121 107 103 102 105 106 112 110 107 108 104 102 108 115 113 115 124 126 124 126 128 121 117 114 112 115 118 114 113 110 110 111 107 103 98 87
177 202 236 315 121 156 136 122 123 120 116 112 110 109 109 107 107 106 109 106 107 114 109 102 108 126 129 133 127 119 112 109 107 103 101 107 115 117 114 111 112 111 108 102
64 322 52 66 59 55 83 108 119 123 125 121 116 115 111 108 107 104 100 106 109 114 115 113 109 113 124 126 122 118 115 112 111 108 102 93 93 104 113 116 119 120 119 115
73 19 37 35 44 59 72 89 100 107 114 119 121 121 119 113 112 109 106 108 113 118 121 122 116 115 118 123 123 118 116 115 112 108 107 95 81 66 88 90 124 131 129 126
201 219 157 186 7 75 84 90 102 106 104 112 121 124 117 115 114 110 111 112 114 116 120 123 122 118 118 122 127 125 122 119 116 114 110 109 105 82 57 75 88 92 100 109
181 157 119 119 68 75 87 84 89 103 112 111 107 113 115 115 108 106 107 113 120 121 121 122 121 119 121 122 124 125 127 127 122 120 120 120 119 116 104 71 70 79 92 100
132 110 86 85 98 83 91 90 86 89 95 105 111 113 115 112 109 107 107 110 114 113 114 116 114 111 115 120 120 120 120 121 122 120 122 123 121 120 121 122 112 82 70 89
124 129 143 139 114 89 83 90 90 88 97 100 110 118 118 117 115 110 107 110 110 108 109 112 111 108 111 117 119 120 120 122 121 120 119 119 118 116 115 116 116 112 99 79
126 109 123 123 121 114 108 110 110 107 106 106 107 110 111 110 108 105 103 112 118 117 117 116 116 118 120 119 119 118 120 126 125 125 124 123 122 122 121 119 119 120 122 123
139 150 140 134 128 126 123 124 124 123 119 115 114 111 109 107 102 100 101 101 107 110 114 119 123 125 123 122 121 121 123 128 127 124 125 129 130 131 132 131 132 133 141 148
151 152 148 141 131 121 113 110 113 116 118 117 114 112 112 114 115 114 113 109 105 101 104 115 120 121 119 120 119 122 123 125 127 128 128 130 133 136 138 139 143 143 146 143
117 117 116 115 116 116 113 109 107 107 111 116 115 112 110 110 113 114 113 112 114 116 119 122 124 122 125 131 127 123 126 128 128 129 131 137 137 139 144 148 150 153 152 146
108 110 107 104 105 111 115 114 110 108 112 116 114 112 110 110 111 111 108 102 105 123 131 126 122 122 130 139 134 128 133 136 137 138 138 144 147 149 154 157 155 155 157 159
107 110 109 109 107 106 110 113 112 111 112 115 119 121 119 114 112 111 111 106 98 106 112 114 111 114 120 129 126 122 129 135 138 142 145 148 151 155 160 163 162 162 164 166
110 111 112 114 113 109 108 110 112 114 115 114 116 118 117 114 110 100 93 109 118 114 111 109 110 117 123 121 118 128 138 142 142 142 146 149 152 157 162 163 165 168 169 171
110 111 112 116 119 116 108 105 108 113 116 118 121 122 120 119 121 123 117 117 119 115 110 112 123 129 130 118 121 133 142 147 150 155 159 159 159 161 164 167 171 172 173 177
108 108 108 109 110 110 107 105 105 108 112 113 115 119 120 117 105 102 121 132 127 120 112 123 135 145 141 119 125 139 144 148 150 152 153 153 155 158 163 167 173 180 183 183
105 104 105 105 104 108 112 112 109 107 105 104 106 108 110 118 127 131 125 129 131 125 122 142 150 149 139 127 122 131 143 151 153 151 151 155 162 168 175 178 179 183 186 188
99 99 97 97 103 108 111 111 107 108 110 108 106 109 109 111 117 119 121 133 142 144 146 156 147 133 131 126 120 136 149 154 155 159 166 168 173 175 178 180 181 183 186 189
93 94 95 93 92 100 105 107 112 115 117 120 120 122 126 126 123 126 129 133 145 156 161 167 163 158 160 154 146 155 160 160 160 162 164 165 166 172 178 179 181 183 184 185